Location: Huntsville
(41.2590°N, 111.7678°W)
Time: 19:24:25
(UTC+00:00)

Explorer 7 - Pass Details

Date: 16 June 2021
Orbit: 484 x 676 km, 50.3° (Epoch: 30 July)

Event Time Altitude Azimuth Distance (km) Brightness Sun altitude
Rises 09:19:56 0° 296° (WNW) 2,965 10.5 -20.3°
Reaches altitude 10° 09:22:37 10° 309° (NW) 2,025 9.8 -20.1°
Maximum altitude 09:26:37 27° 8° (N) 1,176 9.2 -19.8°
Drops below altitude 10° 09:30:25 10° 67° (ENE) 1,921 10.3 -19.4°
Sets 09:32:54 0° 80° (E) 2,783 11.0 -19.2°
